Tracking 19477 objects as of 16-Jan-2019
HD Live streaming from Space Station
objects crossing your sky now

COSMOS 2063

Track COSMOS 2063 now!
COSMOS 2063 is classified as:


NORAD ID: 20536
Int'l Code: 1990-026A
Perigee: 4,376.4 km
Apogee: 36,176.0 km
Inclination: 67.6 °
Period: 721.5 minutes
Semi major axis: 26647 km
RCS: 5.105 m2 (large)
Launch date: March 27, 1990
Source: Commonwealth of Independent States (former USSR) (CIS)
Launch site: PLESETSK MISSILE AND SPACE COMPLEX (PKMTR)
aabbcc
Your satellite tracking list
Your tracking list is empty




NASA's NSSDC Master Catalog

Two Line Element Set (TLE):
1 20536U 90026A   19015.15870265 -.00000292  00000-0  00000+0 0  9996
2 20536  67.5995 340.9506 5966797 171.8409 205.8590  1.99583969210174
Source of the keplerian elements: AFSPC